Header for Extended Forecast Station List Page

Search by: ID | Name | Date | Parm | Value | Avg | % Avg
Sort by: ID | Name | Date | Parm | Value | Avg | % Avg

Enter search or view all records.

Click on id for station plot
#IDNameDateParmValueAvg% Avg
0MYKO3MCKAY CREEK-NEAR PILOT ROCK06-17-2024DISCHARGE (KAF)1150
1WRMO3MALHEUR-WARM SPRINGS DAM06-17-2024INFLOW (KAF)3563
2RIDI1WILLOW CREEK-RIRIE DAM06-17-2024INFLOW (KAF)167239
3TCHW1WALLA WALLA-NEAR TOUCHET06-17-2024DISCHARGE (KAF)41132
4TNAW1TEANAWAY-BELOW FORKS06-17-2024DISCHARGE (KAF)91372
5BERO3MALHEUR-AGENCY VALLEY DAM06-17-2024INFLOW (KAF)81367
6GIBO3UMATILLA-NEAR GIBBON06-17-2024DISCHARGE (KAF)121397
7PDTO3UMATILLA-AT PENDLETON06-17-2024DISCHARGE (KAF)101565
8PIHI1PORTNEUF-AT POCATELLO06-17-2024DISCHARGE (KAF)3217188
9LWRI1LITTLE WOOD-LITTLE WOOD DAM06-17-2024INFLOW (KAF)151788
10SATI1ST MARIES-NEAR SANTA06-17-2024DISCHARGE (KAF)182090
11UMAO3UMATILLA-NEAR UMATILLA06-17-2024DISCHARGE (KAF)3526134
12KADW1KACHESS-KACHESS DAM06-17-2024INFLOW (KAF)192771
13KEDW1YAKIMA-KEECHELUS LAKE06-17-2024INFLOW (KAF)243180
14DEDI1DEADWOOD-NEAR LOWMAN06-17-2024INFLOW (KAF)243275
15BUDW1BUMPING-BUMPING LAKE DAM06-17-2024INFLOW (KAF)223367
16HOTI1BRUNEAU-NEAR HOT SPRINGS06-17-2024DISCHARGE (KAF)4334125
17MILI1SNAKE-AT MILNER06-17-2024DISCHARGE (KAF)M40M
18DLGM8CLARK FORK-AT DEER LODGE06-17-2024DISCHARGE (KAF)174240
19MAGI1BIG WOOD-MAGIC DAM06-17-2024INFLOW (KAF)384487
20STRM8ST. REGIS-NEAR ST. REGIS06-17-2024DISCHARGE (KAF)375172
21MONO3NF JOHN DAY-AT MONUMENT06-17-2024DISCHARGE (KAF)5553104
22WSRI1WEISER-NEAR WEISER06-17-2024DISCHARGE (KAF)556586
23OWYO3OWYHEE-OWYHEE DAM06-17-2024INFLOW (KAF)8166123
24MACI1BIG LOST-MACKAY RESERVOIR NEAR MACKAY06-17-2024INFLOW (KAF)6968101
25HWRI1BIG LOST-AT HOWELL RANCH NEAR CHILLY06-17-2024DISCHARGE (KAF)606986
26ARDW1ENTIAT-NEAR ARDENVOIR06-17-2024DISCHARGE (KAF)537373
27EASW1YAKIMA-AT EASTON06-17-2024DISCHARGE (KAF)497664
28SERO3JOHN DAY-AT SERVICE CK06-17-2024DISCHARGE (KAF)8980110
29HALI1BIG WOOD-AT HAILEY06-17-2024DISCHARGE (KAF)798197
30CSDI1NF PAYETTE-CASCADE DAM06-17-2024INFLOW (KAF)9088102
31RILW1TIETON-RIMROCK LAKE NEAR RIMROCK06-17-2024INFLOW (KAF)779283
32HODO3HOOD-NEAR TUCKER BRIDGE06-17-2024DISCHARGE (KAF)9794103
33ARAI1SF BOISE-ANDERSON RANCH DAM06-17-2024INFLOW (KAF)8010675
34RCCM8ROCK CREEK-NEAR CLINTON06-17-2024DISCHARGE (KAF)7510968
35CHEI1FALL RIVER-NEAR CHESTER06-17-2024DISCHARGE (KAF)7711766
36CLUW1CLE ELUM-CLE ELUM LAKE06-17-2024INFLOW (KAF)7811966
37DRMM8CLARK FORK-NR DRUMMOND06-17-2024DISCHARGE (KAF)7412260
38CLFW1NACHES-NEAR CLIFFDEL06-17-2024DISCHARGE (KAF)8112366
39PARW1YAKIMA-NEAR PARKER06-17-2024DISCHARGE (KAF)2212717
40IPDI1HENRYS FORK-ISLAND PARK DAM06-17-2024INFLOW (KAF)11513982
41UNDW1WHITE SALMON-NEAR UNDERWOOD06-17-2024DISCHARGE (KAF)172172100
42PRTI1PRIEST-NEAR PRIEST RIVER06-17-2024DISCHARGE (KAF)201185109
43PARI1BOISE-NEAR PARMA06-17-2024DISCHARGE (KAF)14419674
44TEAI1TETON-NEAR ST. ANTHONY06-17-2024DISCHARGE (KAF)250208120
45BIGI1BOISE-AT GLENWOOD BRIDGE06-17-2024DISCHARGE (KAF)13021062
46PITW1KLICKITAT-NEAR PITT06-17-2024DISCHARGE (KAF)20021593
47NACW1NACHES-NEAR NACHES06-17-2024DISCHARGE (KAF)16025463
48BONM8BLACKFOOT-NEAR BONNER06-17-2024DISCHARGE (KAF)13326650
49PATW1METHOW-NEAR PATEROS06-17-2024DISCHARGE (KAF)16426662
50JLKW4SNAKE-JACKSON LAKE AT DAM06-17-2024INFLOW (KAF)23926889
51TRYO3GRANDE RONDE-TROY06-17-2024DISCHARGE (KAF)25431381
52ANTI1HENRYS FORK-AT ST. ANTHONY06-17-2024DISCHARGE (KAF)17732255
53COEI1COEUR D ALENE-COEUR D ALENE LAKE06-17-2024INFLOW (KAF)28132586
54REXI1HENRYS FORK-AT REXBURG06-17-2024DISCHARGE (KAF)26732981
55LAUW1KETTLE-AT LAURIER06-17-2024DISCHARGE (KAF)385371104
56KIOW1YAKIMA-AT KIONA06-17-2024DISCHARGE (KAF)30138379
57BITM8BITTERROOT-NEAR MISSOULA06-17-2024DISCHARGE (KAF)29941073
58EMMI1PAYETTE-NEAR EMMETT06-17-2024DISCHARGE (KAF)40842097
59CHDW1CHELAN-LAKE CHELAN DAM06-17-2024INFLOW (KAF)21342950
60PESW1WENATCHEE-AT PESHASTIN06-17-2024DISCHARGE (KAF)43048389
61SPOW1SPOKANE-AT SPOKANE06-17-2024DISCHARGE (KAF)38848580
62DWRI1NF CLEARWATER-DWORSHAK DAM06-17-2024INFLOW (KAF)36751571
63WGCM8MF FLATHEAD-NEAR WEST GLACIER06-17-2024DISCHARGE (KAF)36852171
64HHWM8SF FLATHEAD-HUNGRY HORSE DAM06-17-2024INFLOW (KAF)37852872
65TONW1OKANOGAN-NEAR TONASKET06-17-2024DISCHARGE (KAF)23653145
66ABOM8CLARK FORK-ABOVE MISSOULA06-17-2024DISCHARGE (KAF)29453955
67FCFM8NF FLATHEAD-NEAR COLUMBIA FALLS06-17-2024DISCHARGE (KAF)43056976
68LUCI1BOISE-LUCKY PEAK DAM06-17-2024INFLOW (KAF)632627101
69LLKW1SPOKANE-AT LONGLAKE06-17-2024INFLOW (KAF)54063885
70UMTW1YAKIMA-AT UMTANUM06-17-2024DISCHARGE (KAF)56367983
71BFTI1SNAKE-NEAR BLACKFOOT06-17-2024DISCHARGE (KAF)61370887
72SNAI1SNAKE-AT BLACKFOOT06-17-2024DISCHARGE (KAF)60774881
73BELM8CLARK FORK-BELOW MISSOULA06-17-2024DISCHARGE (KAF)59396861
74ORFI1CLEARWATER-AT OROFINO06-17-2024DISCHARGE (KAF)79897682
75MODO3DESCHUTES-AT MOODY NR BIGGS06-17-2024DISCHARGE (KAF)10841087100
76JKSW4SNAKE-NEAR JACKSON06-17-2024DISCHARGE (KAF)11561128103
77AFRI1SNAKE-AMERICAN FALLS RESERVOIR06-17-2024INFLOW (KAF)1160124493
78SRGM8CLARK FORK-AT ST REGIS06-17-2024DISCHARGE (KAF)792125363
79SHYI1SNAKE-NEAR SHELLEY06-17-2024DISCHARGE (KAF)1174132888
80ALPW4SNAKE-NEAR ALPINE06-17-2024DISCHARGE (KAF)13671336102
81SIFI1SNAKE-AB EAGLE ROCK NR IDAHO FALLS06-17-2024DISCHARGE (KAF)1325147390
82SWAI1SNAKE-BELOW SWAN FALLS06-17-2024DISCHARGE (KAF)1610162699
83PLDI1SF SNAKE-PALISADES DAM06-17-2024INFLOW (KAF)18151717106
84CFMM8FLATHEAD-AT COLUMBIA FALLS06-17-2024DISCHARGE (KAF)1679191688
85WHBI1SALMON-AT WHITEBIRD06-17-2024DISCHARGE (KAF)1609192684
86KERM8FLATHEAD-SELI’Š KSANKA QLISPE’ DAM06-17-2024INFLOW (KAF)1845229380
87HEII1SNAKE-NEAR HEISE06-17-2024DISCHARGE (KAF)2218239393
88WEII1SNAKE-AT WEISER06-17-2024DISCHARGE (KAF)2490251099
89BRNI1SNAKE-BROWNLEE DAM06-17-2024INFLOW (KAF)26522645100
90SPDI1CLEARWATER-AT SPALDING06-17-2024DISCHARGE (KAF)2430265891
91LEOI1KOOTENAI-AT LEONIA06-17-2024DISCHARGE (KAF)2059275675
92LYDM8KOOTENAI-LIBBY DAM06-17-2024INFLOW (KAF)2370284383
93NOXM8CLARK FORK-NOXON RAPIDS DAM06-17-2024INFLOW (KAF)3080397677
94CABI1CLARK FORK-CABINET GORGE DAM06-17-2024INFLOW (KAF)3385438177
95ALFW1PEND OREILLE-ALBENI FALLS DAM06-17-2024INFLOW (KAF)3622444781
96ANAW1SNAKE-NEAR ANATONE06-17-2024DISCHARGE (KAF)4776549187
97LMNW1SNAKE-LOWER MONUMENTAL DAM06-17-2024INFLOW (KAF)7213834986
98LGSW1SNAKE-LITTLE GOOSE DAM06-17-2024INFLOW (KAF)7206836086
99IHDW1SNAKE-ICE HARBOR DAM06-17-2024INFLOW (KAF)7218836186
100LGDW1SNAKE-LOWER GRANITE DAM06-17-2024INFLOW (KAF)7206837286
101GCDW1COLUMBIA-GRAND COULEE DAM06-17-2024INFLOW (KAF)204562365286
102CHJW1COLUMBIA-CHIEF JOSEPH DAM06-17-2024INFLOW (KAF)192532365681
103WELW1COLUMBIA-WELLS DAM06-17-2024INFLOW (KAF)196752465180
104CIBW1COLUMBIA-AT INTL BOUNDARY06-17-2024DISCHARGE (KAF)194782472179
105RRHW1COLUMBIA-ROCKY REACH DAM06-17-2024INFLOW (KAF)198842535678
106WANW1COLUMBIA-WANAPUM DAM06-17-2024INFLOW (KAF)203852574779
107PRWW1COLUMBIA-PRIEST RAPIDS DAM06-17-2024INFLOW (KAF)203872583579
108JDAO3COLUMBIA-JOHN DAY DAM06-17-2024INFLOW (KAF)285203484382
109MCDW1COLUMBIA-MCNARY DAM06-17-2024INFLOW (KAF)280163505580
110TDAO3COLUMBIA-THE DALLES DAM06-17-2024INFLOW (KAF)289913520982
111BONO3COLUMBIA-BONNEVILLE DAM06-17-2024INFLOW (KAF)294743629681
112BFEI1KOOTENAI-AT BONNERS FERRY06-17-2024STAGE (FT)MMM
113HOPI1PEND OREILLE-LAKE PEND OREILLE NR HOPE06-17-2024LAKE ELEVATION (FT)MMM
114SJMI1ST JOE-AT ST MARIES06-17-2024STAGE (FT)MMM
115BULO3BULLY CREEK-BULLY CREEK DAM06-17-2024INFLOW (KAF)MMM